Location: Winthrop
(48.4780°N, 120.1850°W)
Time: 06:58:10
(UTC-07:00)

A-11 Canister half - Visible Passes

Search period start: 29 September 2023 00:00
Search period end: 09 October 2023 00:00
Orbit: 1524 x 1684 km, 47.3° (Epoch: 27 September)

Date Brightness Start Highest point End Pass type
(mag) Time Alt. Az. Time Alt. Az. Time Alt. Az.
29 Sep 9.6 19:35:36 10° WNW 19:44:48 55° SSW 19:54:18 10° SE visible
29 Sep 10.6 21:41:35 10° W 21:48:19 22° SW 21:53:41 14° SSW visible
30 Sep 9.6 19:13:53 10° WNW 19:23:06 57° SSW 19:32:37 10° SE visible
30 Sep 10.6 21:19:44 10° W 21:26:39 23° SW 21:33:33 11° S visible
01 Oct 10.6 20:57:54 10° W 21:05:01 24° SW 21:12:17 10° S visible
02 Oct 10.6 20:36:04 10° W 20:43:22 25° SW 20:50:50 10° S visible
03 Oct 10.6 20:14:16 10° W 20:21:42 26° SW 20:29:20 10° S visible
04 Oct 10.6 19:52:28 10° W 20:00:03 28° SW 20:07:50 10° S visible
05 Oct 10.7 19:30:40 10° W 19:38:24 29° SW 19:46:19 10° S visible
06 Oct 10.7 19:08:53 10° W 19:16:44 30° SW 19:24:47 10° SSE visible
07 Oct 10.7 18:47:07 10° W 18:55:04 32° SW 19:03:14 10° SSE visible
